Regional Weather Roundup
Issued by NWS State College, PA

Home | Current Version | Previous Version | Text Only | Print | Product List | Glossary On
Versions: 1 2 3 4 5 6 7 8 9 10 11 12 13 14 15 16 17 18 19 20 21 22 23 24 25 26 27 28 29 30 31 32 33 34 35 36 37 38 39 40 41 42 43 44 45 46 47 48 49 50
000
ASUS41 KCTP 010710
RWRCTP

REGIONAL WEATHER ROUNDUP
NATIONAL WEATHER SERVICE STATE COLLEGE PA
300 AM EDT SAT NOV 01 2014

Note: "fair" indicates few or no clouds below 12,000 feet with no
significant weather and/or obstructions to visibility.

* = STATION THAT DOES NOT REPORT PRECIPITATION /E.G. RAIN...SNOW...ETC/
    THUNDER OR FOG.

PAZ002>004-007>009-013>016-020>023-029>032-010800-
WESTERN PENNSYLVANIA

CITY           SKY/WX    TMP DP  RH WIND       PRES   REMARKS
ERIE           CLOUDY    42  38  85 CALM      29.95S
MEADVILLE      FOG       39  37  92 NE5       29.92R VSB 1
FRANKLIN*      CLOUDY    37  34  87 N6        29.93R
NEW CASTLE       N/A     41  40  96 N3        29.93R
BEAVER COUNTY  NOT AVBL
BUTLER*        CLOUDY    39  36  87 N8        29.91R
PITTSBURGH INT DRIZZLE   41  40  96 N9        29.88S FOG
PITTSBURGH     LGT RAIN  41  37  86 VRB5      29.87R FOG
INDIANA*       CLOUDY    39  37  93 NE3       29.91S FOG
LATROBE        CLOUDY    39  39 100 MISG      29.89R FOG
WASHINGTON CO* CLOUDY    41  37  87 N6        29.88S
$$

PAZ004>006-010>012-017>019-024>028-033>037-041-042-045-046-049>053-010800-
CENTRAL PENNSYLVANIA

CITY           SKY/WX    TMP DP  RH WIND       PRES   REMARKS
BRADFORD       CLOUDY    37  34  89 N6        29.90S
DUBOIS         CLOUDY    37  35  92 NE8       29.87S
CLEARFIELD     LGT RAIN  39  36  89 NE6       29.88S
JOHNSTOWN      CLOUDY    37  35  92 NE8       29.83S FOG
ALTOONA        LGT RAIN  41  39  93 N5        29.85F
STATE COLLEGE  CLOUDY    42  36  79 N7        29.86F
WILLIAMSPORT   CLOUDY    45  37  73 W5        29.87S
SELINSGROVE    CLOUDY    45  38  76 CALM      29.86F
FT INDIANTOWN  CLOUDY    46  37  71 N7        29.83S
CAPITAL CITY   CLOUDY    47  40  76 CALM      29.84S
HARRISBURG     MOCLDY    46  39  76 NW7       29.82F
YORK           CLOUDY    47  38  71 N5        29.82F
$$

PAZ038>040-043-044-047-048-054-055-060>062-067>071-010800-
EASTERN PENNSYLVANIA

CITY           SKY/WX    TMP DP  RH WIND       PRES   REMARKS
SCRANTON       CLOUDY    47  37  68 NE8       29.86S
MOUNT POCONO   CLOUDY    42  37  82 E9        29.83S
ALLENTOWN      CLOUDY    49  39  68 NE10      29.82F
QUAKERTOWN*    CLOUDY    46  39  76 NE8       29.82S
READING        CLOUDY    46  41  82 N3        29.82F
LANCASTER      CLOUDY    46  40  79 NE14      29.81F
COATESVILLE    CLOUDY    46  39  76 N9        29.79F
POTTSTOWN      CLOUDY    48  39  71 NE7       29.82S
BLUE BELL      CLOUDY    50  45  81 NE7       29.79F
DOYLESTOWN     CLOUDY    46  45  96 N8        29.81S
WILLOW GROVE   NOT AVBL
NORTH PHILA    CLOUDY    51  43  74 NE17G26   29.81F
PHILADELPHIA   CLOUDY    51  44  77 NE18G25   29.78F
$$



USA.gov is the U.S. government's official web portal to all federal, state and local government web resources and services.